GW7216 Weather Reports


time (UTC)temp
C
wind
direction
speed
KPH
gust
KPH
rain 1hr
cm
rain 24hr
cm
rain mn
cm
humidity
%
barometer
mb
20260507153549 16 63 1.6 9.7 0.00 0.03 0.00 59 1013.7
20260507153503 16 72 3.2 9.7 0.00 0.03 0.03 60 1024.2
20260507153055 16 68 3.2 9.7 0.00 0.03 0.00 58 1013.7
20260507153003 16 80 3.2 9.7 0.00 0.03 0.03 60 1024.3
20260507152548 16 0 0.0 9.7 0.00 0.03 0.00 58 1013.6
20260507152503 16 78 1.6 9.7 0.00 0.03 0.03 60 1024.2
20260507152047 16 71 0.0 8.0 0.00 0.03 0.00 61 1013.6
20260507152003 16 72 3.2 8.0 0.00 0.05 0.03 60 1024.3
20260507151553 15 0 3.2 8.0 0.00 0.03 0.00 61 1013.7
20260507151503 16 73 3.2 8.0 0.00 0.05 0.03 60 1024.3
20260507151049 15 73 3.2 8.0 0.00 0.03 0.00 59 1013.7
20260507151003 16 77 3.2 8.0 0.00 0.05 0.03 59 1024.3
20260507150717 16 79 1.6 8.0 0.00 0.05 0.03 61 1024.3
20260507150547 16 74 1.6 8.0 0.00 0.03 0.00 60 1013.7
20260507150049 16 81 0.0 8.0 0.00 0.03 0.00 60 1013.8
20260507150003 16 80 1.6 8.0 0.00 0.05 0.03 60 1024.3
20260507145546 16 0 1.6 4.8 0.00 0.03 0.00 58 1013.6
20260507145503 16 77 1.6 6.4 0.00 0.05 0.03 60 1024.3
20260507145045 16 74 0.0 6.4 0.00 0.03 0.00 59 1013.7
20260507145003 16 76 1.6 6.4 0.00 0.05 0.03 60 1024.3
20260507144717 16 75 1.6 6.4 0.00 0.05 0.03 59 1024.3
20260507144552 16 73 0.0 6.4 0.00 0.03 0.00 59 1013.7
20260507144046 16 78 1.6 4.8 0.00 0.03 0.00 57 1013.7
20260507144003 16 74 1.6 4.8 0.00 0.05 0.03 57 1024.3
20260507143546 16 74 0.0 4.8 0.00 0.03 0.00 57 1013.7
20260507143503 16 74 1.6 4.8 0.00 0.05 0.03 58 1024.4
20260507143105 16 74 0.0 3.2 0.00 0.03 0.00 61 1013.8
20260507143003 16 74 0.0 4.8 0.00 0.05 0.03 60 1024.3
20260507142545 16 74 0.0 4.8 0.00 0.03 0.00 59 1013.8
20260507142503 16 74 1.6 4.8 0.00 0.05 0.03 60 1024.3
20260507142045 16 74 0.0 4.8 0.00 0.03 0.00 58 1013.8
20260507142003 16 76 1.6 4.8 0.00 0.05 0.03 59 1024.4
20260507141551 15 74 0.0 4.8 0.00 0.03 0.00 60 1013.9
20260507141503 16 80 1.6 9.7 0.00 0.05 0.03 61 1024.5
20260507141047 15 0 0.0 8.0 0.00 0.03 0.00 62 1013.9
20260507141003 15 81 1.6 9.7 0.00 0.05 0.03 62 1024.5
20260507140547 15 0 1.6 9.7 0.00 0.03 0.00 59 1013.9
20260507140503 15 69 3.2 9.7 0.00 0.05 0.03 62 1024.5
20260507140052 15 78 3.2 9.7 0.00 0.03 0.00 58 1013.9
20260507140003 16 60 3.2 9.7 0.00 0.05 0.03 60 1024.5
20260507135717 16 55 1.6 9.7 0.00 0.05 0.03 60 1024.5
20260507135546 15 51 0.0 6.4 0.00 0.03 0.00 61 1013.9
20260507135218 16 47 1.6 9.7 0.00 0.05 0.03 60 1024.5
20260507135046 15 0 0.0 9.7 0.00 0.03 0.00 60 1013.9
20260507134557 15 47 1.6 9.7 0.00 0.03 0.00 61 1014.0
20260507134503 15 46 3.2 9.7 0.00 0.05 0.03 62 1024.5
20260507134046 15 46 3.2 9.7 0.00 0.03 0.00 61 1014.0
20260507134003 15 46 3.2 11.3 0.00 0.05 0.03 62 1024.7
20260507133547 15 0 1.6 11.3 0.00 0.03 0.00 63 1014.1
20260507133503 15 46 1.6 11.3 0.00 0.05 0.03 64 1024.6
20260507133057 15 47 1.6 11.3 0.00 0.03 0.00 64 1014.0
20260507133003 15 53 1.6 11.3 0.00 0.05 0.03 63 1024.6
20260507132546 15 0 1.6 11.3 0.00 0.03 0.00 62 1014.1
20260507132503 15 63 3.2 11.3 0.00 0.05 0.03 63 1024.6
20260507132046 15 65 3.2 6.4 0.00 0.03 0.00 63 1014.1
20260507132003 15 67 1.6 9.7 0.00 0.05 0.03 65 1024.6
20260507131601 15 67 1.6 6.4 0.00 0.03 0.00 63 1014.0
20260507131503 15 68 1.6 9.7 0.00 0.05 0.03 64 1024.6
20260507131046 15 0 0.0 9.7 0.00 0.03 0.00 65 1014.0
20260507131003 15 70 1.6 9.7 0.00 0.05 0.03 63 1024.6
20260507130545 15 69 0.0 9.7 0.00 0.03 0.00 63 1014.1
20260507130503 15 60 1.6 9.7 0.00 0.05 0.03 64 1024.6
20260507130055 15 69 0.0 9.7 0.00 0.03 0.00 64 1014.1
20260507130003 15 48 3.2 11.3 0.00 0.05 0.03 63 1024.6
20260507125546 15 44 3.2 8.0 0.00 0.03 0.00 65 1014.0
20260507125503 15 45 3.2 11.3 0.00 0.05 0.03 66 1024.6
20260507125217 15 51 3.2 11.3 0.00 0.05 0.03 65 1024.7
20260507125046 15 44 0.0 11.3 0.00 0.03 0.00 65 1014.1
20260507124602 15 0 4.8 11.3 0.00 0.03 0.00 66 1014.0
20260507124503 15 49 3.2 11.3 0.00 0.05 0.03 65 1024.6
20260507124045 15 76 0.0 4.8 0.00 0.03 0.00 67 1014.0
20260507124003 15 354 1.6 6.4 0.00 0.05 0.03 67 1024.7
20260507123548 14 360 1.6 6.4 0.00 0.03 0.00 67 1014.0
20260507123503 15 356 1.6 6.4 0.00 0.05 0.03 67 1024.6
20260507123054 15 0 0.0 6.4 0.00 0.03 0.00 66 1014.0
20260507123003 15 15 1.6 8.0 0.00 0.05 0.03 68 1024.6
20260507122546 14 30 0.0 6.4 0.00 0.03 0.00 67 1014.0
20260507122503 15 31 1.6 8.0 0.00 0.05 0.03 67 1024.6
20260507122047 14 0 1.6 8.0 0.00 0.03 0.00 68 1014.0
20260507122003 15 27 3.2 11.3 0.00 0.05 0.03 68 1024.5
20260507121556 14 29 1.6 9.7 0.00 0.03 0.00 67 1013.9
20260507121503 15 26 3.2 11.3 0.00 0.05 0.03 67 1024.5
20260507121217 15 30 3.2 11.3 0.00 0.05 0.03 68 1024.5
20260507121047 14 355 3.2 11.3 0.00 0.03 0.00 68 1013.9
20260507120546 15 0 4.8 11.3 0.00 0.03 0.00 66 1013.9
20260507120503 15 29 3.2 11.3 0.00 0.05 0.03 66 1024.5
20260507120055 15 0 1.6 8.0 0.00 0.03 0.00 67 1013.9
20260507120004 15 9 1.6 8.0 0.00 0.05 0.03 68 1024.4
20260507115546 15 11 1.6 8.0 0.00 0.03 0.00 63 1013.9
20260507115503 15 5 1.6 8.0 0.00 0.05 0.03 66 1024.5
20260507115046 15 342 0.0 6.4 0.00 0.03 0.00 66 1013.9
20260507115003 15 351 0.0 6.4 0.00 0.05 0.03 66 1024.5
20260507114606 15 0 1.6 6.4 0.00 0.03 0.00 65 1013.9
20260507114503 15 347 1.6 6.4 0.00 0.05 0.03 67 1024.5
20260507114046 15 344 0.0 6.4 0.00 0.03 0.00 66 1013.9
20260507114003 15 342 1.6 8.0 0.00 0.05 0.03 66 1024.5
20260507113545 15 0 0.0 6.4 0.00 0.03 0.00 66 1013.9
20260507113503 15 338 1.6 8.0 0.00 0.05 0.03 67 1024.6
20260507113121 14 341 0.0 8.0 0.00 0.03 0.00 69 1013.9
20260507113003 15 309 1.6 8.0 0.00 0.05 0.03 70 1024.5
20260507112547 14 331 1.6 8.0 0.00 0.03 0.00 67 1013.9
20260507112503 15 312 1.6 8.0 0.00 0.05 0.03 67 1024.5
20260507112217 15 333 3.2 9.7 0.00 0.05 0.03 68 1024.5
20260507112046 14 0 1.6 6.4 0.00 0.03 0.00 70 1013.9
20260507111718 15 333 3.2 9.7 0.00 0.05 0.03 68 1024.5
20260507111558 14 290 3.2 6.4 0.00 0.03 0.00 69 1013.9
20260507111046 14 346 1.6 9.7 0.00 0.03 0.00 71 1013.9
20260507111003 14 334 1.6 9.7 0.00 0.05 0.03 70 1024.5
20260507110545 14 341 1.6 9.7 0.00 0.03 0.00 69 1013.9
20260507110503 14 332 1.6 9.7 0.00 0.05 0.03 69 1024.5
20260507110051 13 0 0.0 8.0 0.00 0.03 0.00 69 1013.9
20260507110003 14 24 3.2 8.0 0.00 0.05 0.03 69 1024.6
20260507105546 13 0 3.2 8.0 0.00 0.03 0.00 69 1013.9
20260507105503 14 47 3.2 11.3 0.00 0.05 0.03 70 1024.6
20260507105047 13 41 1.6 9.7 0.00 0.03 0.00 72 1014.0
20260507105003 14 330 3.2 11.3 0.00 0.05 0.03 72 1024.6
20260507104556 13 63 1.6 11.3 0.00 0.03 0.00 69 1013.9
20260507104503 13 284 3.2 12.9 0.00 0.05 0.03 69 1024.5
20260507104047 13 312 3.2 12.9 0.00 0.03 0.00 68 1013.9
20260507104003 14 282 3.2 12.9 0.00 0.05 0.03 69 1024.5
20260507103547 13 305 0.0 12.9 0.00 0.03 0.00 69 1013.8
20260507103503 14 300 3.2 12.9 0.00 0.05 0.03 70 1024.5
20260507103056 14 265 3.2 12.9 0.00 0.03 0.00 68 1013.9
20260507103003 14 4 1.6 12.9 0.00 0.05 0.03 69 1024.5
20260507102546 13 23 0.0 8.0 0.00 0.03 0.00 72 1013.9
20260507102503 13 9 1.6 8.0 0.00 0.05 0.03 71 1024.4
20260507102216 13 321 3.2 8.0 0.00 0.05 0.03 71 1024.5
20260507102045 13 0 1.6 8.0 0.00 0.03 0.00 70 1013.9
20260507101553 13 0 3.2 8.0 0.00 0.03 0.00 69 1013.9
20260507101503 13 291 1.6 8.0 0.00 0.05 0.03 70 1024.5
20260507101216 13 300 1.6 6.4 0.00 0.05 0.03 72 1024.5
20260507101043 13 310 0.0 3.2 0.00 0.03 0.00 72 1013.9
20260507100717 13 317 0.0 4.8 0.00 0.05 0.03 74 1024.5
20260507100543 13 0 0.0 4.8 0.00 0.03 0.00 73 1013.8
20260507100057 13 0 0.0 4.8 0.00 0.03 0.00 74 1013.8
20260507100003 13 323 0.0 4.8 0.00 0.05 0.03 74 1024.4
20260507095717 13 330 0.0 9.7 0.00 0.05 0.03 74 1024.5
20260507095545 13 0 0.0 4.8 0.00 0.03 0.00 73 1013.9
20260507095045 13 0 0.0 8.0 0.00 0.03 0.00 74 1013.8
20260507095003 13 350 1.6 9.7 0.00 0.05 0.03 74 1024.4
20260507094717 13 346 1.6 12.9 0.00 0.05 0.03 75 1024.4
20260507094550 13 355 0.0 9.7 0.00 0.03 0.00 75 1013.8
20260507094045 12 0 3.2 9.7 0.00 0.03 0.00 73 1013.8
20260507094003 13 280 3.2 12.9 0.00 0.05 0.03 74 1024.4
20260507093541 12 265 1.6 12.9 0.00 0.03 0.00 76 1013.8
20260507093503 12 260 3.2 12.9 0.00 0.05 0.03 76 1024.3
20260507093056 12 0 4.8 12.9 0.00 0.03 0.00 75 1013.7
20260507093003 12 257 4.8 12.9 0.00 0.05 0.03 76 1024.3
20260507092547 12 253 4.8 11.3 0.00 0.03 0.00 77 1013.7
20260507092503 12 267 3.2 11.3 0.00 0.05 0.03 78 1024.3
20260507092046 12 284 1.6 11.3 0.00 0.03 0.00 78 1013.7
20260507092003 12 278 3.2 11.3 0.00 0.05 0.03 78 1024.3
20260507091717 12 273 4.8 11.3 0.00 0.05 0.03 79 1024.3
20260507091630 12 0 3.2 11.3 0.00 0.03 0.00 77 1013.7
20260507091045 12 267 3.2 9.7 0.00 0.03 0.00 78 1013.7
20260507091003 12 274 3.2 9.7 0.00 0.05 0.03 78 1024.2
20260507090544 12 277 1.6 6.4 0.00 0.03 0.00 77 1013.6
20260507090503 12 279 1.6 11.3 0.00 0.05 0.03 78 1024.2
20260507090050 12 279 0.0 11.3 0.00 0.03 0.00 78 1013.6
20260507090004 12 279 1.6 11.3 0.00 0.05 0.03 79 1024.2
20260507085545 11 279 0.0 11.3 0.00 0.03 0.00 80 1013.6
20260507085503 12 276 1.6 14.5 0.00 0.05 0.03 80 1024.1
20260507085043 11 278 1.6 11.3 0.00 0.03 0.00 79 1013.5
20260507085003 12 276 3.2 14.5 0.00 0.05 0.03 79 1024.1
20260507084604 12 276 1.6 14.5 0.00 0.03 0.00 79 1013.4
20260507084503 12 278 3.2 14.5 0.00 0.05 0.03 80 1024.1
20260507084041 12 270 4.8 14.5 0.00 0.03 0.00 78 1013.5
20260507084003 12 284 1.6 14.5 0.00 0.05 0.03 79 1024.1
20260507083547 12 0 0.0 4.8 0.00 0.03 0.00 79 1013.5
20260507083503 12 355 0.0 8.0 0.00 0.05 0.03 80 1024.1
20260507083054 11 355 0.0 8.0 0.00 0.03 0.00 79 1013.5
20260507083003 12 4 0.0 8.0 0.00 0.05 0.03 80 1024.0
20260507082542 11 0 0.0 8.0 0.00 0.03 0.00 80 1013.5
20260507082503 12 4 1.6 8.0 0.00 0.05 0.03 80 1024.0
20260507082217 11 354 1.6 8.0 0.00 0.05 0.03 82 1024.0
20260507082041 11 0 1.6 8.0 0.00 0.03 0.00 81 1013.3
20260507081716 11 304 1.6 8.0 0.00 0.05 0.03 81 1024.0
20260507081558 11 278 0.0 6.4 0.00 0.03 0.00 81 1013.4
20260507081217 11 272 1.6 6.4 0.00 0.05 0.03 81 1023.9
20260507081043 11 0 0.0 6.4 0.00 0.03 0.00 81 1013.3
20260507080716 11 270 1.6 6.4 0.00 0.05 0.03 81 1023.8
20260507080542 11 273 0.0 6.4 0.00 0.03 0.00 81 1013.2
20260507080048 11 0 1.6 6.4 0.00 0.03 0.00 82 1013.2
20260507080003 11 268 1.6 6.4 0.00 0.05 0.03 82 1023.8
20260507075544 10 0 0.0 6.4 0.00 0.03 0.00 82 1013.2
20260507075503 11 272 1.6 6.4 0.00 0.05 0.03 82 1023.8
20260507075045 10 267 1.6 6.4 0.00 0.03 0.00 82 1013.2
20260507075003 11 284 1.6 6.4 0.00 0.05 0.03 82 1023.8
20260507074550 10 0 0.0 3.2 0.00 0.03 0.00 83 1013.1
20260507074503 11 37 0.0 3.2 0.00 0.05 0.03 84 1023.8
20260507074048 10 38 0.0 3.2 0.00 0.03 0.00 83 1013.2
20260507074003 10 38 0.0 3.2 0.00 0.05 0.03 84 1023.8
20260507073544 10 0 0.0 3.2 0.00 0.03 0.00 84 1013.2
20260507073503 10 38 0.0 8.0 0.00 0.05 0.03 84 1023.8
20260507073055 10 0 0.0 6.4 0.00 0.03 0.00 85 1013.1
20260507073003 10 38 1.6 8.0 0.00 0.05 0.03 85 1023.7
20260507072543 10 0 1.6 8.0 0.00 0.03 0.00 84 1013.1
20260507072503 10 37 3.2 8.0 0.00 0.05 0.03 85 1023.7
20260507072044 10 38 1.6 8.0 0.00 0.03 0.00 84 1013.1
20260507072003 10 35 3.2 8.0 0.00 0.05 0.03 85 1023.7
20260507071552 10 35 3.2 8.0 0.00 0.03 0.00 84 1013.1
20260507071503 10 34 3.2 8.0 0.00 0.05 0.03 85 1023.7
20260507071042 9 0 1.6 6.4 0.00 0.03 0.00 85 1013.0
20260507071003 10 34 1.6 8.0 0.00 0.05 0.03 86 1023.7
20260507070542 9 34 0.0 4.8 0.00 0.03 0.00 86 1013.1
20260507070503 10 34 0.0 8.0 0.00 0.05 0.03 86 1023.7
20260507070059 9 34 0.0 8.0 0.00 0.03 0.00 86 1013.1
20260507070005 10 35 1.6 8.0 0.00 0.05 0.03 86 1023.7
20260507065541 9 0 1.6 8.0 0.00 0.03 0.00 86 1013.0
20260507065503 10 29 1.6 8.0 0.00 0.05 0.03 87 1023.5
20260507065043 9 47 0.0 6.4 0.00 0.03 0.00 87 1013.0
20260507065003 10 357 1.6 6.4 0.00 0.05 0.03 87 1023.6
20260507064718 10 334 1.6 6.4 0.00 0.05 0.03 88 1023.6
20260507064552 9 355 0.0 6.4 0.00 0.03 0.00 87 1012.9
20260507064047 9 0 0.0 3.2 0.00 0.03 0.00 88 1012.9
20260507064003 10 312 0.0 4.8 0.00 0.05 0.03 88 1023.5
20260507063542 9 0 0.0 3.2 0.00 0.03 0.00 88 1013.0
20260507063503 10 311 0.0 3.2 0.00 0.05 0.03 89 1023.4
20260507063050 9 0 0.0 3.2 0.00 0.03 0.00 88 1012.9
20260507063003 10 311 0.0 3.2 0.00 0.05 0.03 89 1023.4
20260507062544 9 0 0.0 3.2 0.00 0.03 0.00 88 1012.8
20260507062503 10 311 0.0 3.2 0.00 0.05 0.03 89 1023.4
20260507062044 10 0 0.0 3.2 0.00 0.03 0.00 90 1012.7
20260507062003 10 311 0.0 3.2 0.00 0.05 0.03 90 1023.3
20260507061552 10 0 0.0 3.2 0.00 0.03 0.00 91 1012.6
20260507061503 10 308 0.0 3.2 0.00 0.05 0.03 91 1023.2
20260507061047 10 0 0.0 3.2 0.00 0.03 0.00 90 1012.6
20260507061003 10 308 0.0 3.2 0.00 0.05 0.03 91 1023.1
20260507060544 9 0 0.0 3.2 0.00 0.03 0.00 91 1012.4
20260507060503 10 308 0.0 4.8 0.00 0.05 0.03 91 1023.1
20260507060100 9 0 0.0 3.2 0.00 0.03 0.00 90 1012.4
20260507060003 10 308 1.6 4.8 0.00 0.05 0.03 91 1023.0
20260507055544 9 0 0.0 4.8 0.00 0.03 0.00 90 1012.4
20260507055503 10 308 0.0 4.8 0.00 0.05 0.03 91 1023.0
20260507055043 9 308 0.0 4.8 0.00 0.03 0.00 90 1012.3
20260507055003 10 308 1.6 4.8 0.00 0.05 0.03 91 1022.9
20260507054549 9 0 0.0 4.8 0.00 0.03 0.00 90 1012.3
20260507054503 10 308 1.6 4.8 0.00 0.05 0.03 91 1022.9
20260507054047 9 0 0.0 4.8 0.00 0.03 0.00 90 1012.3
20260507054003 10 308 1.6 4.8 0.00 0.05 0.03 91 1022.8
20260507053545 9 0 0.0 4.8 0.00 0.03 0.00 90 1012.3
20260507053503 10 308 1.6 4.8 0.00 0.05 0.03 91 1022.9
20260507053053 9 308 0.0 4.8 0.00 0.03 0.00 91 1012.3
20260507053003 10 309 1.6 4.8 0.00 0.05 0.03 91 1022.8
20260507052546 9 309 1.6 4.8 0.00 0.03 0.00 91 1012.1
20260507052503 10 309 1.6 4.8 0.00 0.05 0.03 91 1022.7
20260507052044 9 0 0.0 4.8 0.00 0.03 0.00 91 1012.1
20260507052003 10 309 1.6 4.8 0.00 0.05 0.03 91 1022.7
20260507051553 9 0 0.0 4.8 0.00 0.03 0.00 91 1012.0
20260507051503 10 312 1.6 4.8 0.00 0.05 0.03 91 1022.6
20260507051216 9 307 1.6 4.8 0.00 0.05 0.03 91 1022.6
20260507051041 9 0 1.6 4.8 0.00 0.03 0.00 91 1011.9
20260507050546 9 0 0.0 3.2 0.00 0.03 0.00 91 1011.9
20260507050503 9 263 0.0 3.2 0.00 0.05 0.03 91 1022.5
20260507050049 9 0 0.0 3.2 0.00 0.03 0.00 91 1011.9
20260507050003 9 263 0.0 3.2 0.00 0.05 0.03 91 1022.4
20260507045717 9 263 0.0 3.2 0.00 0.05 0.03 91 1022.4
20260507045544 9 0 0.0 3.2 0.00 0.03 0.00 91 1011.8
20260507045216 9 263 0.0 3.2 0.00 0.05 0.03 91 1022.4
20260507045041 9 263 0.0 3.2 0.00 0.03 0.00 91 1011.8
20260507044605 9 0 0.0 3.2 0.00 0.03 0.00 91 1011.8
20260507044503 9 263 0.0 3.2 0.00 0.05 0.03 91 1022.4
20260507044044 9 0 0.0 1.6 0.00 0.03 0.00 91 1011.7
20260507044003 9 263 0.0 1.6 0.00 0.05 0.03 91 1022.2
20260507043544 9 0 0.0 1.6 0.00 0.03 0.00 91 1011.6
20260507043503 9 263 0.0 1.6 0.00 0.05 0.03 91 1022.3
20260507043103 9 0 0.0 0.0 0.00 0.03 0.00 91 1011.6
20260507043003 9 0 0.0 0.0 0.00 0.05 0.03 91 1022.2
20260507042541 9 0 0.0 0.0 0.00 0.03 0.00 91 1011.6
20260507042503 9 0 0.0 3.2 0.00 0.05 0.03 91 1022.2
20260507042218 9 0 0.0 3.2 0.00 0.05 0.03 91 1022.1
20260507042049 9 0 0.0 0.0 0.00 0.03 0.00 91 1011.5
20260507041558 9 0 0.0 3.2 0.00 0.03 0.00 91 1011.5
20260507041503 9 263 0.0 4.8 0.00 0.05 0.03 91 1022.1
20260507041218 9 263 0.0 4.8 0.00 0.05 0.03 91 1022.0
20260507041046 9 0 0.0 3.2 0.00 0.03 0.00 91 1011.5
20260507040546 9 263 0.0 4.8 0.00 0.03 0.00 91 1011.5
20260507040503 9 263 1.6 4.8 0.00 0.05 0.03 91 1022.0
20260507040052 9 0 0.0 4.8 0.00 0.03 0.00 91 1011.4
20260507040003 9 263 1.6 4.8 0.00 0.05 0.03 91 1022.0
20260507035545 9 263 0.0 4.8 0.00 0.03 0.00 91 1011.4
20260507035503 9 263 1.6 4.8 0.00 0.05 0.03 91 1021.9
20260507035048 9 263 0.0 3.2 0.00 0.03 0.00 91 1011.4
20260507035003 9 263 1.6 3.2 0.00 0.05 0.03 91 1021.9
20260507034555 9 0 0.0 3.2 0.00 0.03 0.00 91 1011.3
20260507034503 9 263 0.0 3.2 0.00 0.05 0.03 91 1022.0
20260507034045 9 0 0.0 3.2 0.00 0.03 0.00 91 1011.3
20260507034003 9 263 0.0 3.2 0.00 0.05 0.03 91 1021.9
20260507033548 9 0 0.0 3.2 0.00 0.03 0.00 90 1011.3
20260507033503 9 263 0.0 3.2 0.00 0.05 0.03 91 1021.9
20260507033056 9 0 0.0 3.2 0.00 0.03 0.00 90 1011.3
20260507033003 9 263 0.0 3.2 0.00 0.05 0.03 91 1021.9
20260507032549 9 0 0.0 3.2 0.00 0.03 0.00 90 1011.3
20260507032503 9 263 0.0 3.2 0.00 0.05 0.03 91 1021.9
20260507032047 9 263 0.0 3.2 0.00 0.03 0.00 91 1011.2
20260507032003 9 263 0.0 3.2 0.03 0.05 0.03 91 1021.8
20260507031557 9 0 0.0 1.6 0.00 0.03 0.00 91 1011.2
20260507031504 9 263 0.0 3.2 0.03 0.05 0.03 91 1021.7
20260507031218 9 263 0.0 3.2 0.03 0.05 0.03 91 1021.7
20260507031048 9 0 0.0 3.2 0.00 0.03 0.00 91 1011.2
20260507030547 9 0 0.0 3.2 0.00 0.03 0.00 90 1011.1
20260507030503 9 263 0.0 4.8 0.03 0.05 0.03 91 1021.7
20260507030051 9 0 0.0 3.2 0.00 0.03 0.00 90 1011.1
20260507030003 9 263 0.0 4.8 0.03 0.05 0.03 91 1021.7
20260507025717 9 263 0.0 4.8 0.03 0.05 0.03 91 1021.7
20260507025545 9 0 0.0 4.8 0.00 0.03 0.00 90 1011.1
20260507025050 9 0 0.0 4.8 0.00 0.03 0.00 90 1011.2
20260507025003 9 263 1.6 9.7 0.03 0.05 0.03 91 1021.7
20260507024555 9 263 0.0 3.2 0.00 0.03 0.00 90 1011.1
20260507024503 9 263 1.6 9.7 0.03 0.05 0.03 91 1021.7
20260507024047 9 0 0.0 9.7 0.00 0.03 0.00 90 1011.1
20260507024003 9 262 1.6 9.7 0.03 0.05 0.03 91 1021.7
20260507023545 9 0 1.6 9.7 0.00 0.03 0.00 90 1011.1
20260507023503 10 262 1.6 9.7 0.03 0.05 0.03 91 1021.7
20260507023108 9 261 0.0 3.2 0.00 0.03 0.00 90 1011.1
20260507023003 10 261 0.0 3.2 0.03 0.05 0.03 91 1021.6
20260507022545 9 0 0.0 3.2 0.00 0.03 0.00 90 1011.1
20260507022503 10 261 1.6 6.4 0.03 0.05 0.03 91 1021.7
20260507022047 9 261 0.0 4.8 0.00 0.00 0.00 90 1011.1
20260507022003 10 261 1.6 6.4 0.00 0.03 0.00 91 1021.6
20260507021716 10 261 1.6 6.4 0.00 0.03 0.00 90 1021.7
20260507021552 9 0 1.6 6.4 0.00 0.00 0.00 90 1011.0
20260507021047 9 261 1.6 6.4 0.00 0.00 0.00 90 1011.0
20260507021003 10 261 1.6 6.4 0.00 0.03 0.00 90 1021.6
20260507020547 9 0 1.6 4.8 0.00 0.00 0.00 90 1011.0
20260507020503 10 261 1.6 4.8 0.00 0.03 0.00 90 1021.5
20260507020059 9 0 0.0 4.8 0.00 0.00 0.00 90 1011.0
20260507020003 10 261 0.0 4.8 0.00 0.03 0.00 90 1021.5
20260507015547 9 0 0.0 4.8 0.00 0.00 0.00 90 1010.9
20260507015503 10 261 0.0 4.8 0.00 0.03 0.00 90 1021.5
20260507015047 9 0 0.0 3.2 0.00 0.00 0.00 90 1010.9
20260507015003 10 261 0.0 3.2 0.00 0.03 0.00 90 1021.4
20260507014558 9 0 0.0 3.2 0.00 0.00 0.00 90 1010.8
20260507014503 10 261 1.6 3.2 0.00 0.03 0.00 90 1021.4
20260507014217 10 261 1.6 3.2 0.00 0.03 0.00 90 1021.3
20260507014046 9 261 0.0 3.2 0.00 0.00 0.00 90 1010.8
20260507013548 9 0 0.0 4.8 0.00 0.00 0.00 90 1010.7
20260507013503 10 261 1.6 4.8 0.00 0.03 0.00 90 1021.2
20260507013053 9 0 0.0 4.8 0.00 0.00 0.00 90 1010.6
20260507013003 10 261 0.0 4.8 0.00 0.03 0.00 90 1021.1
20260507012718 10 261 1.6 4.8 0.00 0.03 0.00 90 1021.1
20260507012549 9 261 0.0 4.8 0.00 0.00 0.00 90 1010.6
20260507012048 9 0 1.6 4.8 0.00 0.00 0.00 90 1010.6
20260507012003 10 261 1.6 6.4 0.00 0.03 0.00 90 1021.1
20260507011718 10 261 1.6 6.4 0.00 0.03 0.00 90 1021.0
20260507011551 9 261 0.0 6.4 0.00 0.00 0.00 90 1010.4
20260507011046 9 261 1.6 6.4 0.00 0.00 0.00 90 1010.4
20260507010547 9 261 1.6 6.4 0.00 0.00 0.00 89 1010.4
20260507010503 10 261 3.2 6.4 0.00 0.03 0.00 90 1021.0
20260507010052 9 261 1.6 4.8 0.00 0.00 0.00 89 1010.4
20260507010003 10 261 1.6 4.8 0.00 0.03 0.00 90 1021.0
20260507005548 9 261 1.6 4.8 0.00 0.03 0.00 89 1010.4
20260507005503 10 261 1.6 4.8 0.00 0.03 0.00 90 1021.0
20260507005049 9 261 1.6 4.8 0.00 0.03 0.00 89 1010.4
20260507005003 10 261 1.6 4.8 0.00 0.03 0.00 90 1020.9
20260507004550 9 0 0.0 4.8 0.00 0.03 0.00 89 1010.4
20260507004503 10 261 1.6 9.7 0.00 0.05 0.00 90 1020.9
20260507004047 9 261 1.6 6.4 0.00 0.03 0.00 89 1010.3
20260507004003 10 261 3.2 9.7 0.00 0.05 0.00 90 1020.9
20260507003548 9 261 1.6 9.7 0.00 0.03 0.00 89 1010.3
20260507003503 10 260 3.2 9.7 0.00 0.05 0.00 90 1021.0
20260507003106 9 260 3.2 9.7 0.00 0.03 0.00 89 1010.3
20260507003003 10 261 3.2 9.7 0.00 0.05 0.00 90 1020.9
20260507002547 9 261 3.2 9.7 0.00 0.03 0.00 89 1010.3
20260507002503 10 260 3.2 6.4 0.00 0.05 0.00 90 1020.9
20260507002216 10 260 3.2 9.7 0.00 0.05 0.00 90 1020.9
20260507002048 9 261 3.2 9.7 0.00 0.03 0.00 89 1010.3
20260507001613 9 259 3.2 9.7 0.00 0.03 0.00 89 1010.2
20260507001503 10 258 3.2 9.7 0.00 0.05 0.00 90 1020.9
20260507001045 9 258 1.6 6.4 0.00 0.03 0.00 89 1010.3
20260507001003 10 258 3.2 6.4 0.00 0.05 0.00 90 1020.8
20260507000550 9 258 3.2 6.4 0.00 0.03 0.00 89 1010.3
20260507000503 10 257 3.2 6.4 0.00 0.05 0.00 90 1020.8
20260507000055 9 257 1.6 9.7 0.00 0.03 0.00 89 1010.3
20260507000003 10 257 3.2 9.7 0.00 0.05 0.00 89 1020.9
20260506235548 9 257 1.6 9.7 0.00 0.03 0.00 89 1010.3
20260506235503 10 258 3.2 9.7 0.00 0.05 0.00 89 1020.9
20260506235046 9 257 3.2 8.0 0.00 0.03 0.00 89 1010.3
20260506235003 10 258 3.2 8.0 0.00 0.05 0.00 89 1020.8
20260506234555 9 259 1.6 9.7 0.00 0.03 0.00 89 1010.3
20260506234503 10 258 3.2 9.7 0.00 0.05 0.00 89 1020.9
20260506234048 9 259 3.2 9.7 0.00 0.03 0.00 89 1010.3
20260506234003 10 258 3.2 9.7 0.00 0.05 0.00 89 1020.8
20260506233546 9 257 3.2 9.7 0.00 0.03 0.00 89 1010.2
20260506233503 10 257 3.2 9.7 0.00 0.05 0.00 89 1020.8
20260506233054 9 258 3.2 9.7 0.00 0.03 0.00 89 1010.2
20260506233003 10 257 3.2 9.7 0.00 0.05 0.00 89 1020.8
20260506232717 10 258 3.2 11.3 0.00 0.05 0.00 89 1020.7
20260506232547 9 0 3.2 9.7 0.00 0.03 0.00 89 1010.2
20260506232047 9 257 3.2 11.3 0.00 0.03 0.00 89 1010.1
20260506232003 10 258 4.8 11.3 0.00 0.05 0.00 89 1020.7
20260506231559 9 259 3.2 11.3 0.00 0.03 0.00 89 1010.1
20260506231503 10 256 4.8 11.3 0.00 0.05 0.00 89 1020.5
20260506231047 9 253 3.2 11.3 0.00 0.03 0.00 89 1010.0
20260506231003 10 254 4.8 11.3 0.00 0.05 0.00 89 1020.5
20260506230546 9 257 4.8 8.0 0.00 0.03 0.00 89 1009.9
20260506230503 10 251 4.8 11.3 0.00 0.05 0.00 89 1020.5
20260506230113 9 254 3.2 8.0 0.00 0.03 0.00 89 1009.9
20260506230003 10 249 4.8 11.3 0.00 0.05 0.00 89 1020.5
20260506225550 9 246 3.2 11.3 0.00 0.03 0.00 89 1009.8
20260506225503 10 256 4.8 11.3 0.00 0.05 0.00 89 1020.5
20260506225218 10 263 4.8 11.3 0.00 0.05 0.00 89 1020.4
20260506225046 10 258 3.2 11.3 0.00 0.03 0.00 89 1009.9
20260506224554 10 266 4.8 11.3 0.00 0.03 0.00 89 1009.8
20260506224503 10 273 4.8 12.9 0.00 0.05 0.00 89 1020.3
20260506224045 10 271 3.2 9.7 0.00 0.03 0.00 89 1009.8
20260506224003 10 276 3.2 12.9 0.00 0.05 0.00 89 1020.4
20260506223717 10 275 3.2 11.3 0.00 0.05 0.00 89 1020.4
20260506223548 10 275 3.2 12.9 0.00 0.03 0.00 89 1009.8
20260506223051 10 275 3.2 12.9 0.00 0.03 0.00 89 1009.8
20260506223003 10 267 4.8 12.9 0.00 0.05 0.00 89 1020.3
20260506222546 10 257 3.2 9.7 0.00 0.03 0.00 89 1009.7
20260506222503 10 264 3.2 9.7 0.00 0.05 0.00 89 1020.3
20260506222047 10 263 1.6 9.7 0.00 0.03 0.00 88 1009.7
20260506222003 10 261 3.2 9.7 0.00 0.05 0.00 89 1020.3
20260506221605 10 261 1.6 6.4 0.00 0.03 0.00 88 1009.6
20260506221503 10 261 3.2 6.4 0.00 0.05 0.00 89 1020.2
20260506221047 10 261 1.6 6.4 0.00 0.03 0.00 88 1009.5
20260506221003 10 261 3.2 9.7 0.00 0.05 0.00 89 1020.1
20260506220547 10 261 3.2 6.4 0.00 0.03 0.00 88 1009.5
20260506220503 10 263 4.8 9.7 0.00 0.05 0.00 89 1020.1
20260506220055 10 263 3.2 9.7 0.00 0.03 0.00 88 1009.4
20260506220003 10 265 4.8 9.7 0.00 0.05 0.00 89 1019.9
20260506215716 10 265 4.8 9.7 0.00 0.05 0.05 89 1020.0
20260506215546 10 267 3.2 9.7 0.00 0.03 0.03 88 1009.4
20260506215049 10 261 3.2 9.7 0.00 0.03 0.03 88 1009.4
20260506215003 10 269 3.2 9.7 0.00 0.05 0.05 89 1020.0
20260506214557 10 273 3.2 9.7 0.00 0.03 0.03 88 1009.4
20260506214503 10 270 3.2 9.7 0.00 0.05 0.05 89 1019.9
20260506214046 10 271 3.2 9.7 0.00 0.03 0.03 88 1009.3
20260506214003 10 269 3.2 9.7 0.00 0.05 0.05 89 1019.8
20260506213546 10 268 3.2 9.7 0.00 0.03 0.03 88 1009.3
20260506213503 10 267 3.2 9.7 0.00 0.05 0.05 89 1019.8
20260506213106 10 267 1.6 9.7 0.00 0.03 0.03 88 1009.2
20260506213003 10 264 3.2 11.3 0.00 0.05 0.05 89 1019.7
20260506212546 10 262 3.2 11.3 0.00 0.03 0.03 89 1009.2
20260506212503 10 266 3.2 11.3 0.00 0.05 0.05 89 1019.7
20260506212217 10 268 4.8 11.3 0.00 0.05 0.05 89 1019.7
20260506212047 10 271 3.2 11.3 0.00 0.03 0.03 89 1009.2
20260506211716 10 270 3.2 11.3 0.00 0.05 0.05 89 1019.7
20260506211554 10 270 3.2 11.3 0.00 0.03 0.03 89 1009.2
20260506211048 10 270 3.2 9.7 0.00 0.03 0.03 89 1009.2
20260506211003 10 267 3.2 9.7 0.00 0.05 0.05 89 1019.6
20260506210546 10 269 3.2 9.7 0.00 0.03 0.03 89 1009.1
20260506210503 10 263 3.2 12.9 0.00 0.05 0.05 89 1019.7
20260506210058 10 0 3.2 9.7 0.00 0.03 0.03 89 1009.1
20260506210003 10 260 3.2 12.9 0.00 0.05 0.05 89 1019.6
20260506205551 10 0 3.2 12.9 0.00 0.03 0.03 89 1008.9
20260506205503 10 261 4.8 12.9 0.00 0.05 0.05 89 1019.6
20260506205048 10 257 4.8 12.9 0.00 0.03 0.03 89 1009.0
20260506205003 10 264 4.8 12.9 0.00 0.05 0.05 89 1019.6
20260506204557 10 264 3.2 11.3 0.00 0.03 0.03 89 1008.9
20260506204503 10 264 4.8 11.3 0.00 0.05 0.05 90 1019.4
20260506204047 10 261 3.2 11.3 0.00 0.03 0.03 89 1008.9
20260506204003 10 262 4.8 11.3 0.00 0.05 0.05 90 1019.5
20260506203718 10 261 3.2 11.3 0.00 0.05 0.05 90 1019.5
20260506203547 10 264 3.2 11.3 0.00 0.03 0.03 89 1008.8
20260506203116 10 258 1.6 9.7 0.00 0.03 0.03 89 1008.9
20260506203003 10 258 3.2 9.7 0.00 0.05 0.05 90 1019.4
20260506202547 10 259 3.2 9.7 0.00 0.03 0.03 89 1008.8
20260506202503 10 259 3.2 9.7 0.00 0.05 0.05 90 1019.4
20260506202046 10 0 3.2 9.7 0.00 0.03 0.03 89 1008.8
20260506202003 10 260 3.2 9.7 0.00 0.05 0.05 90 1019.3
20260506201554 10 261 1.6 9.7 0.00 0.03 0.03 89 1008.7
20260506201503 10 261 3.2 9.7 0.00 0.05 0.05 90 1019.3
20260506201049 10 261 3.2 9.7 0.00 0.03 0.03 89 1008.7
20260506201003 10 262 3.2 9.7 0.00 0.05 0.05 90 1019.3
20260506200554 10 264 1.6 9.7 0.00 0.03 0.03 89 1008.7
20260506200503 10 262 3.2 9.7 0.00 0.05 0.05 90 1019.3
20260506200057 10 264 3.2 9.7 0.00 0.03 0.03 89 1008.7
20260506200003 10 261 3.2 9.7 0.00 0.05 0.05 90 1019.2
20260506195546 10 259 1.6 6.4 0.00 0.03 0.03 89 1008.7
20260506195503 10 261 3.2 6.4 0.00 0.05 0.05 90 1019.2
20260506195046 10 261 1.6 6.4 0.00 0.03 0.03 89 1008.6
20260506195003 10 261 3.2 9.7 0.00 0.05 0.05 90 1019.2
20260506194555 10 261 1.6 6.4 0.00 0.03 0.03 89 1008.6
20260506194503 10 261 1.6 9.7 0.00 0.05 0.05 90 1019.1
20260506194045 10 261 0.0 9.7 0.00 0.03 0.03 89 1008.5
20260506194003 10 261 1.6 9.7 0.00 0.05 0.05 90 1019.1
20260506193718 10 260 1.6 9.7 0.00 0.05 0.05 90 1019.1
20260506193545 10 261 3.2 9.7 0.00 0.03 0.03 89 1008.5
20260506193104 10 0 0.0 6.4 0.00 0.03 0.03 89 1008.3
20260506193003 11 259 1.6 9.7 0.00 0.05 0.05 90 1019.0
20260506192547 10 259 1.6 9.7 0.00 0.03 0.03 89 1008.3
20260506192503 11 259 3.2 9.7 0.00 0.05 0.05 90 1018.9
20260506192045 10 259 1.6 9.7 0.00 0.03 0.03 89 1008.3
20260506192003 11 260 3.2 9.7 0.00 0.05 0.05 89 1018.8
20260506191557 10 260 3.2 9.7 0.00 0.03 0.03 89 1008.1
20260506191503 11 259 3.2 9.7 0.00 0.05 0.05 89 1018.8
20260506191047 10 259 3.2 9.7 0.00 0.03 0.03 88 1008.1
20260506191003 11 259 3.2 9.7 0.00 0.05 0.05 89 1018.6
20260506190546 10 260 1.6 6.4 0.00 0.03 0.03 88 1008.0
20260506190503 11 259 3.2 6.4 0.00 0.05 0.05 89 1018.5
20260506190055 10 259 1.6 6.4 0.00 0.03 0.03 88 1007.9
20260506190003 11 258 3.2 9.7 0.00 0.05 0.05 89 1018.5
20260506185546 11 259 3.2 6.4 0.00 0.03 0.03 88 1007.9
20260506185503 11 258 3.2 9.7 0.00 0.05 0.05 89 1018.4
20260506185046 11 259 1.6 9.7 0.00 0.03 0.03 88 1007.8
20260506185003 11 261 3.2 9.7 0.00 0.05 0.05 89 1018.4
20260506184556 11 262 3.2 9.7 0.00 0.03 0.03 88 1007.7
20260506184503 11 263 3.2 9.7 0.00 0.05 0.05 88 1018.3
20260506184047 11 264 3.2 6.4 0.00 0.03 0.03 88 1007.7
20260506184003 11 266 3.2 9.7 0.00 0.05 0.05 88 1018.2
20260506183549 11 0 3.2 9.7 0.00 0.03 0.03 87 1007.6
20260506183503 11 266 3.2 9.7 0.00 0.05 0.05 88 1018.2
20260506183100 11 0 0.0 9.7 0.00 0.03 0.03 87 1007.6
20260506183003 11 265 3.2 12.9 0.00 0.05 0.05 88 1018.1
20260506182545 11 265 3.2 9.7 0.00 0.03 0.03 87 1007.6
20260506182503 11 263 3.2 12.9 0.00 0.05 0.05 88 1018.1
20260506182216 11 263 4.8 12.9 0.00 0.05 0.05 87 1018.0
20260506182047 11 263 3.2 12.9 0.00 0.03 0.03 87 1007.5
20260506181556 11 265 4.8 12.9 0.00 0.03 0.03 87 1007.4
20260506181503 11 265 4.8 12.9 0.00 0.05 0.05 87 1017.9
20260506181046 11 275 4.8 12.9 0.00 0.03 0.03 86 1007.2
20260506181003 11 265 4.8 16.1 0.00 0.05 0.05 87 1017.9
20260506180550 11 267 3.2 16.1 0.00 0.03 0.03 86 1007.2
20260506180503 11 267 4.8 16.1 0.00 0.05 0.05 87 1017.8
20260506180218 11 266 4.8 16.1 0.00 0.05 0.05 87 1017.9
20260506180054 11 269 3.2 16.1 0.00 0.03 0.03 86 1007.3
20260506175547 11 256 4.8 16.1 0.00 0.03 0.03 86 1007.3
20260506175503 11 263 4.8 16.1 0.00 0.05 0.05 87 1017.8
20260506175049 11 263 3.2 9.7 0.00 0.03 0.03 86 1007.1
20260506175003 11 267 3.2 11.3 0.00 0.05 0.05 87 1017.7
20260506174551 11 265 3.2 11.3 0.00 0.03 0.03 86 1007.2
20260506174503 11 270 3.2 11.3 0.00 0.05 0.05 87 1017.6
20260506174047 11 272 1.6 11.3 0.00 0.03 0.03 86 1007.0
20260506174003 11 270 3.2 11.3 0.00 0.05 0.05 87 1017.6
20260506173717 11 270 3.2 11.3 0.00 0.05 0.05 86 1017.5
20260506173547 11 271 1.6 6.4 0.00 0.03 0.03 86 1007.0
20260506173058 11 269 1.6 9.7 0.00 0.03 0.03 86 1007.0
20260506173003 11 270 3.2 9.7 0.00 0.05 0.05 86 1017.5
20260506172546 11 0 3.2 9.7 0.00 0.03 0.03 86 1006.9
20260506172503 11 271 3.2 9.7 0.00 0.05 0.05 86 1017.4
20260506172048 11 272 1.6 4.8 0.00 0.03 0.03 86 1006.9
20260506172003 11 271 1.6 4.8 0.00 0.05 0.05 86 1017.4
20260506171554 11 0 0.0 4.8 0.00 0.03 0.03 85 1006.8
20260506171503 12 271 1.6 6.4 0.00 0.05 0.05 86 1017.4
20260506171047 11 0 0.0 6.4 0.00 0.03 0.03 85 1006.8
20260506171003 12 271 0.0 6.4 0.00 0.05 0.05 86 1017.4
20260506170546 11 0 0.0 6.4 0.00 0.03 0.03 85 1006.8
20260506170503 12 273 1.6 6.4 0.00 0.05 0.05 86 1017.4
20260506170218 12 272 1.6 6.4 0.00 0.05 0.05 86 1017.3
20260506170108 11 0 0.0 6.4 0.00 0.03 0.03 85 1006.9
20260506165717 12 270 1.6 6.4 0.00 0.05 0.05 86 1017.3
20260506165546 11 0 0.0 6.4 0.00 0.43 0.03 85 1006.8
20260506165046 12 0 0.0 6.4 0.00 0.43 0.03 85 1006.8
20260506165003 12 265 1.6 11.3 0.00 0.05 0.05 86 1017.3
20260506164606 12 270 3.2 11.3 0.00 0.43 0.03 85 1006.7
20260506164503 12 265 3.2 11.3 0.00 0.05 0.05 86 1017.2
20260506164046 12 263 3.2 11.3 0.00 0.43 0.03 84 1006.7
20260506164003 12 266 4.8 14.5 0.00 0.05 0.05 85 1017.2
20260506163545 12 0 6.4 12.9 0.00 0.43 0.03 84 1006.6
20260506163503 12 266 6.4 14.5 0.00 0.05 0.05 84 1017.2
20260506163100 12 277 6.4 14.5 0.00 0.43 0.03 84 1006.6
20260506163003 12 268 4.8 14.5 0.00 0.05 0.05 84 1017.2
20260506162549 12 264 3.2 14.5 0.00 0.43 0.03 84 1006.5
20260506162503 12 267 4.8 14.5 0.00 0.18 0.05 84 1017.1
20260506162046 12 278 3.2 12.9 0.00 0.43 0.03 84 1006.6
20260506162003 12 268 3.2 14.5 0.03 0.20 0.05 84 1017.2
20260506161554 12 0 0.0 14.5 0.00 0.43 0.03 84 1006.5
20260506161503 12 276 3.2 14.5 0.03 0.20 0.05 84 1017.1
20260506161217 13 274 3.2 14.5 0.03 0.23 0.05 84 1017.0
20260506161046 12 275 3.2 14.5 0.00 0.43 0.03 83 1006.5
20260506160547 12 298 1.6 14.5 0.00 0.43 0.03 84 1006.4
20260506160503 13 266 4.8 14.5 0.03 0.30 0.05 85 1016.9
20260506160059 13 260 3.2 14.5 0.00 0.43 0.03 84 1006.5
20260506160003 13 268 4.8 14.5 0.03 0.43 0.05 84 1017.0
20260506155551 13 288 3.2 12.9 0.00 1.02 0.03 84 1006.5
20260506155503 13 267 3.2 12.9 0.03 0.71 0.05 85 1017.0
20260506155047 13 269 3.2 11.3 0.00 1.02 0.03 84 1006.4
20260506155003 13 254 3.2 11.3 0.03 0.81 0.05 85 1017.0
20260506154716 13 237 3.2 11.3 0.03 0.89 0.05 85 1016.9
20260506154557 13 298 1.6 11.3 0.00 1.02 0.03 85 1006.5
20260506154048 13 201 1.6 9.7 0.00 1.02 0.03 85 1006.4
20260506154003 13 249 1.6 14.5 0.03 0.91 0.05 86 1016.9